Welcome to the New NWS' Forecast!
Most changes are behind the scenes, but click here for differences you might notice.
Latest weather observations around

Mount Ida (KMWT)

Using English Units (Switch to International System of Units)
Date/ Time (CDT) Wind (mph) Vis. (mi) Weather Sky Cond. Temp (°F) Rel. Humidity Wind Chill (°F) Heat Index (°F) Pressure Precip. (in)
Air Dwpt 6 hour Altimeter (inHg) Sea level (inHg) 1 hr 3 hr 6 hr
Max Min
Sep 19 05:53 Calm 8 Clear CLR 65 63     93%     29.92 29.88      
Sep 19 04:53 Calm 10 Clear CLR 66 63     90%     29.91 29.88      
Sep 19 03:53 Calm 10 Clear CLR 66 64     93%     29.91 29.87      
Sep 19 02:53 Calm 10 Clear CLR 66 64     93%     29.92 29.88      
Sep 19 01:53 Calm 10 Clear CLR 67 64     90%     29.93 29.9      
Sep 19 00:53 Calm 10 Clear CLR 69 65     87%     29.94 29.91      
Sep 18 23:53 Calm 10 Clear CLR 70 66     87%     29.96 29.92      
Sep 18 22:53 Calm 10 Clear CLR 72 65     79%   73 29.96 29.92      
Sep 18 21:53 Calm 10 Clear CLR 74 63     69%   74 29.95 29.92      
Sep 18 20:53 Calm 10 Clear CLR 76 62     62%   76 29.94 29.91      
Sep 18 19:53 Calm 10 Clear CLR 79 62     56%   79 29.93 29.9      
Sep 18 18:53 Calm 10 Clear   84 62     48%   85 29.92 29.89      
Sep 18 17:53 Calm 10 Clear CLR 89 60     38%   89 29.92 29.88      
Sep 18 16:53 Calm 10 Clear CLR 90 59     35%   89 29.92 29.88      
Sep 18 15:53 NW 7 10 Mostly Clear FEW060 92 59     33%   91 29.93 29.89      
Sep 18 14:53 3 10 Mostly Clear FEW080 91 58     33%   90 29.96 29.92      
Sep 18 13:53 6 10 Partly Cloudy SCT080 88 59     38%   87 29.99 29.95      
Sep 18 12:53 W 10 10 Partly Cloudy SCT048 SCT060 SCT090 86 63     46%   87 30.02 29.99      
Sep 18 11:53 3 10 Mostly Clear FEW090 85 64     50%   86 30.04 30.01      
Sep 18 10:53 3 10 Clear CLR 86 66     51%   88 30.04 30      
Sep 18 09:53 Calm 10 Clear CLR 80 67     64%   82 30.03 30      
Sep 18 08:53 Calm 10 Mostly Clear FEW044 74 67     79%   75 30.03 30      
Sep 18 07:53 Calm 10 Clear CLR 68 64     87%     30.03 30      
Sep 18 03:53 Calm 10 Clear CLR 67 65     93%     29.99 29.95      
Sep 18 02:53 Calm 10 Clear CLR 68 65     90%     29.97 29.93      
Sep 18 01:53 Calm 10 Clear CLR 69 66     90%     29.97 29.93      
Sep 18 00:53 Calm 10 Clear CLR 69 66     90%     30 29.96      
Sep 17 23:53 Calm 10 Clear CLR 71 68     90%   72 30.02 29.98      
Sep 17 22:53 Calm 10 Clear CLR 72 67     84%   73 30.04 30      
Sep 17 21:53 Calm 10 Clear CLR 74 67     79%   75 30.04 30.01      
Sep 17 20:53 Calm 10 Mostly Clear FEW060 75 65     71%   76 30.03 30.01      
Sep 17 19:53 Calm 10 Clear CLR 77 65     66%   78 30.02 30      
Sep 17 18:53 Calm 10 Partly Cloudy SCT065 82 64     55%   84 30.02 29.99      
Sep 17 17:53 NW 3 10 Partly Cloudy SCT065 90 59     35%   89 30.02 29.98      
Sep 17 16:53 3 10 Mostly Cloudy BKN065 92 57     31%   91 30 29.96      
Sep 17 15:53 Calm 10 Clear CLR 91 56     31%   89 30 29.96      
Sep 17 14:53 5 10 Clear CLR 91 58     33%   90 30.04 30      
Sep 17 13:53 5 10 Mostly Clear FEW050 91 61     37%   91 30.06 30.02      
Sep 17 12:53 Calm 10 Mostly Cloudy BKN045 87 63     45%   88 30.08 30.04      
Sep 17 11:53 WSW 8 10 Mostly Clear FEW043 87 64     46%   88 30.08 30.05      
Sep 17 10:53 6 10 Clear CLR 84 64     51%   85 30.08 30.05      
Sep 17 09:53 Calm 10 Clear CLR 80 67     64%   82 30.08 30.04      
Sep 17 08:53 Calm 10 Clear CLR 72 67     84%   73 30.08 30.05      
Sep 17 07:53 Calm 10 Clear CLR 65 62     90%     30.07 30.04      
Sep 17 06:53 Calm 6 Fog/Mist CLR 64 61     90%     30.05 30.02      
Sep 17 05:53 Calm 8 Clear CLR 64 63     96%     30.04 30.01      
Sep 17 03:53 Calm 8 Clear CLR 65 63     93%     30.02 29.99      
Sep 17 01:53 Calm 9 Clear CLR 66 64     93%     30.02 29.98      
Sep 17 00:53 Calm 10 Clear CLR 67 64     90%     30.03 29.99      
Sep 16 23:53 Calm 10 Clear CLR 67 64     90%     30.03 29.99      
Sep 16 22:53 Calm 10 Clear CLR 68 65     90%     30.02 29.99      
Sep 16 21:53 Calm 10 Clear CLR 70 64     81%     30.01 29.97      
Sep 16 20:53 Calm 10 Clear CLR 72 64     76%   72 30 29.97      
Sep 16 19:53 Calm 10 Clear CLR 75 63     66%   75 29.98 29.96      
Sep 16 18:53 Calm 10 Clear CLR 82 61     49%   83 29.97 29.94      
Sep 16 17:53 3 10 Clear CLR 88 58     36%   87 29.96 29.93      
Sep 16 16:53 S 7 10 Clear CLR 90 58     34%   89 29.96 29.93      
Sep 16 15:53 SW 8 10 Clear CLR 89 58     35%   88 29.97 29.94      
Sep 16 14:53 5 10 Clear CLR 89 57     34%   88 29.99 29.95      
Sep 16 13:53 6 10 Mostly Clear FEW049 89 60     38%   89 30.01 29.97      
Sep 16 12:53 5 10 Partly Cloudy SCT045 87 61     42%   87 30.03 29.99      
Sep 16 11:53   10 Mostly Clear FEW040 85 62     46%   86 30.04 30.01      
Sep 16 10:53 3 10 Partly Cloudy SCT035 83 65     55%   85 30.05 30.02      
Sep 16 09:53 Calm 10 Clear CLR 80 65     60%   82 30.05 30.01      
Sep 16 08:53 Calm 10 Clear CLR 70 64     81%     30.04 30.01      
Sep 16 07:53 Calm 10 Mostly Clear FEW038 64 61     90%     30.03 30.01      
Sep 16 06:53 Calm 8 Mostly Cloudy BKN043 BKN050 62 59     90%     30.02 29.99      
Sep 16 05:53 Calm 7 Clear CLR 62 59     90%     30 29.96      
Sep 16 04:53 Calm 7 Clear CLR 62 59     90%     29.98 29.94      
Sep 16 03:53 Calm 7 Clear CLR 63 60     90%     29.96 29.93      
Jun 12 07:23 Calm 2.5 Fog/Mist OVC009 74 72     94%   75 30        
Jun 12 00:53 SE 7 10 Cloudy BKN021 OVC028 76 69     79%   77 29.97 29.93      
Jun 11 20:53 Calm 10 Clear CLR 77 64     64%   77 29.95 29.92      
Jun 11 18:53 SE 6 10 Clear CLR 85 60     43%   85 29.94 29.9      
Jun 11 11:53   10 Partly Cloudy FEW038 SCT047 83 64     53%   84 30.01 29.97      
Jun 08 12:53 NNE 3 10 Partly Cloudy SCT060 79 50     36%   78 30.01 29.99      
Jun 06 06:31 Calm 2 Fog/Mist BKN002 64 63     96%     29.83        
Jun 06 04:56 Calm 2.5 Fog/Mist SCT002 BKN010 65 63     93%     29.82        
Jun 06 03:23 Calm 2 Fog/Mist SCT002 66 64     93%     29.81        
Jun 06 02:33 Calm 2 Fog/Mist SCT002 66 64     93%     29.81        
Jun 05 22:28 Calm 1.5 Clear   70 68     93%     29.81